Weather in Bolgar

Russia / Republic of Tatarstan     54°58′29″N   49°01′49″E
temp.,
°C
wind,
m/s
gust,
m/s
humid.,
%
clouds,
%
prec.,
mm/h
press.,
hPa
HPBL,
m
13 may, thu
thu1300:00+13ese23685 0.0 102411
03:00+12ese237060 0.0 102515
06:00+12ene447433 0.0 102439
09:00+14ese5769100 0.0 102489
12:00+16se696384 0.0 1023177
15:00+17se5767100 0.0 1022123
18:00+17se686999 0.0 102164
21:00+15se577739 0.0 102148
14 may, fri
fri1400:00+14sse457848 0.0 102139
03:00+13sse338055 0.1 102132
06:00+13s3379100 0.1 102140
09:00+14s457562 0.1 102269
12:00+17ssw4569100 0.0 1021121
15:00+18s576297 0.0 1021127
18:00+18s55660 0.0 102041
21:00+15s4475100 0.0 102023
15 may, sat
sat1500:00+14s447468 0.0 102020
03:00+13s3373100 0.0 102017
06:00+13s467269 0.0 102048
09:00+16s676173 0.0 102071
12:00+18s7105349 0.0 1020124
15:00+19s6105167 0.0 1019170
18:00+18s455948 0.0 101941
21:00+15s447036 0.0 101926
16 may, sun
sun1600:00+14s446899 0.0 101830
03:00+13s447039 0.0 101822
06:00+14s457785 0.0 101942
09:00+17ssw57635 0.0 101881
12:00+19ssw69556 0.0 1018162
15:00+20ssw6949100 0.0 1017273
18:00+18ssw4458100 0.0 101634
21:00+16sw3468100 0.0 101717
17 may, mon
mon1700:00+15sw33715 0.0 101712
03:00+13wsw227884 0.1 101811
06:00+14sw117613 0.0 101821
09:00+15s127311 0.1 101883
12:00+17s236528 0.0 1018152
15:00+19s1259100 0.0 1018188
18:00+18e116796 0.0 101712
21:00+16n55785 0.3 101826